Location: Bogis-Bossey
(46.3500°N, 6.1667°E)
Time: 17:39:24
(UTC+00:00)

Cosmos 2228 Rocket - Pass Details

Date: 17 August 2022
Orbit: 616 x 652 km, 82.5° (Epoch: 30 September)

Event Time Altitude Azimuth Distance (km) Brightness Sun altitude
Rises 22:04:34 0° 342° (NNW) 2,985 7.9 -26.8°
Reaches altitude 10° 22:07:02 10° 332° (NNW) 2,066 6.7 -26.9°
Maximum altitude 22:11:04 31° 271° (W) 1,130 4.5 -27.2°
Enters shadow 22:11:19 31° 264° (W) 1,135 4.5 -27.3°
